Date String (YYYY-MM-DD hh:mm:ss) UTC,Instrument flags,Ambient pressure (hPa),Sample flow (lpm),Bypass flow (lpm),Sample temperature (°C),Ambient temperature (°C),ASC tube jacket temperature (°C),LED temperature (°C),Box temperature (°C),Sample RH (%),Span deviation,Mass concentration (μg/m³),Mass concentration (μg/m³),Mass concentration (μg/m³)
DateTimeUTC,F1_M11,P_M11,Q1_M11,Q2_M11,T1_M11,T2_M11,T3_M11,T4_M11,T5_M11,U1_M11,ZSPAN_M11,X0_M11,X2_M11,X1_M11
2021-11-10 05:00:00,,0822.3,5.00,0.00,27.4,26.5,00.0,36.4,29.1,16.0,-000.7,0041.72,0016.36,0013.59
2021-11-10 05:01:00,,0822.3,4.99,0.00,27.3,26.4,00.0,36.4,29.1,16.1,-000.9,0043.04,0016.36,0013.59
2021-11-10 05:02:00,,0822.2,5.00,0.00,27.3,26.4,00.0,36.4,29.0,16.1,-000.9,0042.89,0016.42,0013.60
2021-11-10 05:03:00,,0822.2,5.00,0.00,27.3,26.4,00.0,36.4,29.1,16.1,-001.0,0041.91,0016.43,0013.58
2021-11-10 05:04:00,,0822.2,5.00,0.00,27.3,26.4,00.0,36.4,29.1,16.1,-001.0,0042.27,0016.46,0013.59
2021-11-10 05:05:00,,0822.2,5.00,0.00,27.3,26.4,00.0,36.4,29.0,16.1,-001.1,0041.37,0016.48,0013.62
2021-11-10 05:06:00,,0822.2,4.99,0.00,27.3,26.4,00.0,36.4,29.0,16.1,-001.0,0041.71,0016.52,0013.67
2021-11-10 05:07:00,,0822.1,5.01,0.00,27.3,26.4,00.0,36.4,29.0,16.1,-000.8,0041.64,0016.54,0013.72
2021-11-10 05:08:00,,0822.1,4.99,0.00,27.3,26.4,00.0,36.4,29.0,16.1,-000.9,0041.20,0016.47,0013.79
2021-11-10 05:09:00,,0822.2,5.00,0.00,27.3,26.4,00.0,36.4,29.1,16.0,-000.7,0040.05,0016.40,0013.84
2021-11-10 05:10:00,,0822.2,5.00,0.00,27.3,26.4,00.0,36.4,29.0,16.1,-000.7,0038.99,0016.38,0013.87
2021-11-10 05:11:00,,0822.2,5.00,0.00,27.2,26.3,00.0,36.3,29.0,16.1,-000.6,0037.98,0016.41,0013.90
2021-11-10 05:12:00,,0822.1,4.99,0.00,27.2,26.3,00.0,36.3,29.0,16.1,-000.4,0037.88,0016.41,0013.93
2021-11-10 05:13:00,,0822.0,5.00,0.00,27.2,26.3,00.0,36.3,29.0,16.1,-000.1,0037.06,0016.32,0013.96
2021-11-10 05:14:00,,0821.9,5.00,0.00,27.2,26.3,00.0,36.3,29.0,16.1,-000.1,0037.78,0016.32,0013.99
2021-11-10 05:15:00,,0822.0,5.00,0.00,27.2,26.4,00.0,36.3,29.0,15.9,-000.1,0037.49,0016.36,0014.05
2021-11-10 05:16:00,,0822.0,5.01,0.00,27.2,26.4,00.0,36.3,29.0,15.9,-000.2,0036.15,0016.30,0014.05
2021-11-10 05:17:00,,0822.0,4.99,0.00,27.3,26.4,00.0,36.3,29.0,15.9,-000.1,0035.51,0016.30,0014.08
2021-11-10 05:18:00,,0822.0,5.01,0.00,27.3,26.4,00.0,36.3,29.0,15.9,-000.1,0035.59,0016.33,0014.09
2021-11-10 05:19:00,,0821.9,5.00,0.00,27.3,26.4,00.0,36.3,29.0,15.5,0000.0,0034.91,0016.27,0014.00
2021-11-10 05:20:00,,0821.9,5.01,0.00,27.3,26.4,00.0,36.3,29.1,15.2,-000.2,0034.61,0016.01,0013.77
2021-11-10 05:21:00,,0822.2,4.99,0.00,27.3,26.4,00.0,36.3,29.1,15.3,-000.2,0034.92,0015.87,0013.66
2021-11-10 05:22:00,,0822.0,5.00,0.00,27.3,26.4,00.0,36.3,29.0,15.3,-000.3,0033.93,0015.64,0013.48
2021-11-10 05:23:00,,0821.9,4.99,0.00,27.3,26.4,00.0,36.3,29.0,15.4,-000.5,0033.80,0015.54,0013.38
2021-11-10 05:24:00,,0822.0,5.00,0.00,27.3,26.4,00.0,36.3,29.0,15.3,-000.5,0033.00,0015.41,0013.26
2021-11-10 05:25:00,,0822.0,5.01,0.00,27.3,26.4,00.0,36.3,29.0,15.2,-000.4,0033.42,0015.26,0013.11
2021-11-10 05:26:00,,0822.0,4.98,0.00,27.3,26.5,00.0,36.3,29.0,14.7,-000.1,0032.15,0014.97,0012.85
2021-11-10 05:27:00,,0821.9,5.00,0.00,27.3,26.4,00.0,36.3,29.0,14.0,-000.1,0032.41,0014.43,0012.35
2021-11-10 05:28:00,,0822.0,5.00,0.00,27.3,26.4,00.0,36.3,29.0,14.4,-000.3,0031.46,0013.80,0011.79
2021-11-10 05:29:00,,0822.1,5.00,0.00,27.3,26.4,00.0,36.3,29.0,15.1,-000.3,0032.26,0013.53,0011.65
2021-11-10 05:30:00,,0822.1,5.01,0.00,27.3,26.4,00.0,36.3,29.0,15.2,-000.6,0034.42,0013.35,0011.49
2021-11-10 05:31:00,,0822.0,4.99,0.00,27.3,26.4,00.0,36.3,29.0,15.5,-000.6,0035.59,0013.48,0011.62
2021-11-10 05:32:00,,0822.0,4.99,0.00,27.2,26.4,00.0,36.3,29.0,15.5,-000.7,0034.63,0013.55,0011.66
2021-11-10 05:33:00,,0822.1,5.01,0.00,27.2,26.4,00.0,36.3,29.0,15.2,-000.9,0034.27,0013.57,0011.68
2021-11-10 05:34:00,,0822.0,4.99,0.00,27.2,26.4,00.0,36.3,29.0,15.1,-000.6,0032.90,0013.38,0011.55
2021-11-10 05:35:00,,0822.0,5.01,0.00,27.2,26.3,00.0,36.3,29.0,14.8,-000.4,0032.87,0013.22,0011.37
2021-11-10 05:36:00,,0821.9,4.99,0.00,27.2,26.3,00.0,36.3,29.0,14.4,-000.5,0032.28,0012.87,0011.09
2021-11-10 05:37:00,,0821.8,5.00,0.00,27.2,26.3,00.0,36.3,29.0,14.0,-000.7,0030.86,0012.38,0010.74
2021-11-10 05:38:00,,0821.8,5.00,0.00,27.2,26.3,00.0,36.3,29.0,14.2,-000.5,0029.25,0012.32,0010.72
2021-11-10 05:39:00,,0821.9,5.01,0.00,27.2,26.3,00.0,36.3,29.0,14.3,-000.2,0029.70,0012.44,0010.82
2021-11-10 05:40:00,,0821.8,4.99,0.00,27.2,26.3,00.0,36.3,29.0,14.5,0000.1,0027.60,0012.22,0010.58
2021-11-10 05:41:00,,0821.8,5.01,0.00,27.1,26.2,00.0,36.3,28.9,14.7,0000.4,0025.31,0012.09,0010.46
2021-11-10 05:42:00,,0821.8,5.02,0.00,27.1,26.2,00.0,36.2,28.9,14.5,0000.7,0024.63,0011.77,0010.14
2021-11-10 05:43:00,,0821.8,5.00,0.00,27.1,26.2,00.0,36.2,28.9,14.4,0000.9,0023.88,0011.38,0009.76
2021-11-10 05:44:00,,0821.8,4.99,0.00,27.1,26.2,00.0,36.2,28.8,14.3,0001.2,0024.56,0011.15,0009.51
2021-11-10 05:45:00,,0821.8,5.00,0.00,27.1,26.2,00.0,36.2,28.8,13.8,0001.7,0025.07,0010.75,0009.13
2021-11-10 05:46:00,,0821.9,5.00,0.00,27.1,26.2,00.0,36.2,28.8,14.2,0002.0,0024.03,0010.39,0008.85
2021-11-10 05:47:00,,0821.8,5.00,0.00,27.1,26.2,00.0,36.2,28.8,14.5,0001.6,0022.76,0010.32,0008.77
2021-11-10 05:48:00,,0821.8,5.00,0.00,27.0,26.2,00.0,36.2,28.7,15.0,0001.4,0023.18,0010.73,0009.10
2021-11-10 05:49:00,,0821.8,5.00,0.00,27.0,26.1,00.0,36.2,28.7,14.2,0001.3,0023.18,0010.73,0009.11
2021-11-10 05:50:00,,0821.8,4.99,0.00,27.0,26.1,00.0,36.1,28.8,14.0,0000.6,0022.53,0010.63,0009.03
2021-11-10 05:51:00,,0821.8,4.99,0.00,27.0,26.1,00.0,36.1,28.7,13.0,0000.1,0021.29,0010.14,0008.63
2021-11-10 05:52:00,,0821.8,5.01,0.00,27.0,26.1,00.0,36.1,28.7,13.0,-000.4,0020.86,0009.39,0007.97
2021-11-10 05:53:00,,0821.8,5.02,0.00,27.0,26.1,00.0,36.1,28.7,14.0,-000.5,0020.28,0008.98,0007.65
2021-11-10 05:54:00,,0821.8,4.99,0.00,27.0,26.0,00.0,36.1,28.7,13.3,-000.5,0019.87,0008.55,0007.31
2021-11-10 05:55:00,,0821.8,5.01,0.00,26.9,26.0,00.0,36.1,28.7,12.8,-000.8,0017.61,0007.83,0006.72
2021-11-10 05:56:00,,0821.8,5.01,0.00,26.9,26.0,00.0,36.1,28.7,13.3,-001.1,0015.91,0007.39,0006.38
2021-11-10 05:57:00,,0821.8,4.99,0.00,26.9,26.0,00.0,36.1,28.6,13.4,-001.5,0015.52,0006.96,0006.01
2021-11-10 05:58:00,,0821.8,5.00,0.00,26.9,26.1,00.0,36.1,28.6,13.6,-000.8,0014.93,0006.56,0005.69
2021-11-10 05:59:00,,0821.9,5.01,0.00,26.9,26.1,00.0,36.1,28.6,13.3,-000.4,0014.33,0005.82,0005.08
